DFSCM EDDL-EDDL

Flight info

Callsign DFSCM
Flight time N/A
Altitude
Route VFR/N
Aircraft

Departure

Time 2026-05-04 18:54
Airport Düsseldorf Airport (EDDL)

Arrival

Time N/A
Airport Düsseldorf Airport (EDDL)
Time Latitude Longitude Altitude Speed Heading
2026-05-04 18:36 51.27544 6.75250 120 ft 0 kts 77°
2026-05-04 18:41 51.27602 6.75208 118 ft 14 kts 329°
2026-05-04 18:41 51.27685 6.75186 119 ft 12 kts
2026-05-04 18:41 51.27748 6.75221 120 ft 6 kts 52°
2026-05-04 18:42 51.27822 6.75375 124 ft 22 kts 53°
2026-05-04 18:42 51.27905 6.75548 127 ft 18 kts 50°
2026-05-04 18:42 51.27982 6.75710 128 ft 26 kts 53°
2026-05-04 18:42 51.28024 6.75798 126 ft 0 kts 51°
2026-05-04 18:44 51.28036 6.75821 126 ft 3 kts 53°
2026-05-04 18:45 51.28118 6.75997 128 ft 10 kts 53°
2026-05-04 18:45 51.28120 6.76001 128 ft 0 kts 52°
2026-05-04 18:46 51.28214 6.76200 125 ft 34 kts 52°
2026-05-04 18:46 51.28350 6.76485 122 ft 30 kts 53°
2026-05-04 18:46 51.28470 6.76735 123 ft 26 kts 52°
2026-05-04 18:46 51.28570 6.76947 128 ft 22 kts 53°
2026-05-04 18:47 51.28694 6.77206 128 ft 39 kts 52°
2026-05-04 18:47 51.28825 6.77481 128 ft 27 kts 52°
2026-05-04 18:47 51.28920 6.77648 127 ft 15 kts 10°
2026-05-04 18:47 51.28953 6.77635 128 ft 0 kts 325°
2026-05-04 18:52 51.29041 6.77500 128 ft 21 kts 284°
2026-05-04 18:52 51.29034 6.77454 126 ft 0 kts 236°
2026-05-04 18:53 51.28817 6.76997 143 ft 94 kts 232°
2026-05-04 18:54 51.28425 6.76052 588 ft 105 kts 256°
2026-05-04 18:54 51.28708 6.74940 966 ft 122 kts 324°
2026-05-04 18:54 51.29522 6.74362 1318 ft 131 kts 336°
2026-05-04 18:54 51.30367 6.73774 1715 ft 135 kts 336°
2026-05-04 18:55 51.31285 6.73201 1974 ft 149 kts 345°
2026-05-04 18:55 51.33397 6.73341 2048 ft 171 kts
2026-05-04 18:55 51.34558 6.73627 2043 ft 167 kts
2026-05-04 18:56 51.35698 6.73904 2042 ft 164 kts
2026-05-04 18:56 51.36822 6.74174 2040 ft 163 kts
2026-05-04 18:56 51.37781 6.74406 2040 ft 162 kts
2026-05-04 18:56 51.38947 6.74462 2038 ft 162 kts 359°
2026-05-04 18:57 51.40024 6.74447 2046 ft 161 kts 359°
2026-05-04 18:57 51.41146 6.74437 2046 ft 161 kts 359°
2026-05-04 18:57 51.42244 6.74705 2045 ft 162 kts 26°
2026-05-04 18:57 51.43068 6.75915 2046 ft 162 kts 48°
2026-05-04 18:58 51.43826 6.77254 2061 ft 162 kts 47°
2026-05-04 18:58 51.44586 6.78579 2066 ft 163 kts 47°
2026-05-04 18:58 51.45334 6.79881 2367 ft 151 kts 46°
2026-05-04 18:58 51.46043 6.81095 2832 ft 147 kts 46°
2026-05-04 18:59 51.46739 6.82286 3291 ft 145 kts 46°
2026-05-04 18:59 51.47429 6.83468 3748 ft 145 kts 46°
2026-05-04 18:59 51.48108 6.84626 4197 ft 144 kts 46°
2026-05-04 18:59 51.48793 6.85799 4651 ft 144 kts 46°
2026-05-04 19:00 51.49480 6.86972 5106 ft 144 kts 46°
2026-05-04 19:00 51.50163 6.88141 5559 ft 144 kts 46°
2026-05-04 19:00 51.50847 6.89313 6012 ft 143 kts 46°
2026-05-04 19:00 51.51528 6.90480 6465 ft 143 kts 46°
2026-05-04 19:01 51.52272 6.91758 6471 ft 171 kts 47°
2026-05-04 19:01 51.53122 6.93241 6120 ft 183 kts 47°
2026-05-04 19:01 51.53949 6.94752 5389 ft 177 kts 49°
2026-05-04 19:01 51.54755 6.96234 4647 ft 174 kts 49°
2026-05-04 19:02 51.55546 6.97684 3903 ft 172 kts 49°
2026-05-04 19:02 51.56318 6.99099 3434 ft 156 kts 49°
2026-05-04 19:02 51.56961 7.00258 3398 ft 124 kts 47°
2026-05-04 19:02 51.57518 7.01257 3117 ft 121 kts 48°
2026-05-04 19:03 51.58107 7.02318 2655 ft 130 kts 48°
2026-05-04 19:03 51.58675 7.03339 2469 ft 117 kts 48°
2026-05-04 19:03 51.59191 7.04332 2191 ft 116 kts 53°
2026-05-04 19:03 51.59678 7.05386 1888 ft 117 kts 53°
2026-05-04 19:04 51.60151 7.06400 1685 ft 111 kts 53°
2026-05-04 19:04 51.60612 7.07389 1425 ft 110 kts 53°
2026-05-04 19:04 51.61088 7.08404 1240 ft 118 kts 52°
2026-05-04 19:04 51.61561 7.09395 1230 ft 113 kts 52°
2026-05-04 19:05 51.62003 7.10367 1290 ft 99 kts 58°
2026-05-04 19:05 51.62336 7.11332 1254 ft 101 kts 59°
2026-05-04 19:05 51.62687 7.12328 1218 ft 100 kts 60°
2026-05-04 19:05 51.63023 7.13275 1229 ft 97 kts 59°
2026-05-04 19:06 51.63356 7.14225 1194 ft 98 kts 60°
2026-05-04 19:06 51.63756 7.15319 1476 ft 125 kts 59°
2026-05-04 19:06 51.64201 7.16544 2007 ft 125 kts 58°
2026-05-04 19:06 51.64635 7.17726 2612 ft 122 kts 58°
2026-05-04 19:07 51.65081 7.18943 3083 ft 130 kts 59°
2026-05-04 19:07 51.65539 7.20200 3592 ft 131 kts 59°
2026-05-04 19:07 51.65979 7.21398 3422 ft 121 kts 59°
2026-05-04 19:07 51.66403 7.22597 3047 ft 126 kts 61°
2026-05-04 19:08 51.66801 7.23764 2852 ft 115 kts 61°
2026-05-04 19:08 51.67195 7.24917 2473 ft 122 kts 61°
2026-05-04 19:08 51.67604 7.26115 2149 ft 122 kts 61°
2026-05-04 19:08 51.67993 7.27252 1977 ft 111 kts 61°
2026-05-04 19:09 51.68389 7.28391 1816 ft 131 kts 59°
2026-05-04 19:09 51.68855 7.29687 2044 ft 138 kts 59°
2026-05-04 19:09 51.69341 7.31055 2266 ft 143 kts 59°
2026-05-04 19:09 51.69837 7.32451 2494 ft 145 kts 60°
2026-05-04 19:10 51.70343 7.33877 2720 ft 147 kts 60°
2026-05-04 19:10 51.70851 7.35315 2938 ft 148 kts 60°
2026-05-04 19:10 51.71372 7.36783 3054 ft 156 kts 60°
2026-05-04 19:10 51.71924 7.38352 3058 ft 164 kts 60°
2026-05-04 19:11 51.72497 7.39982 3061 ft 169 kts 60°
2026-05-04 19:11 51.73020 7.41689 3059 ft 171 kts 67°
2026-05-04 19:11 51.73476 7.43467 3057 ft 172 kts 67°
2026-05-04 19:11 51.73930 7.45223 3053 ft 172 kts 67°
2026-05-04 19:12 51.74390 7.47016 3050 ft 173 kts 67°
2026-05-04 19:12 51.75305 7.50609 3052 ft 171 kts 69°
2026-05-04 19:12 51.75778 7.52346 3044 ft 169 kts 66°
2026-05-04 19:13 51.76208 7.54133 3047 ft 171 kts 69°
2026-05-04 19:13 51.76637 7.55925 3042 ft 171 kts 65°
2026-05-04 19:13 51.77355 7.57446 3043 ft 171 kts 45°
2026-05-04 19:13 51.78178 7.58833 3046 ft 171 kts 46°
2026-05-04 19:14 51.78998 7.60233 3044 ft 172 kts 46°
2026-05-04 19:14 51.79822 7.61638 3042 ft 172 kts 46°
2026-05-04 19:14 51.80643 7.63040 3043 ft 172 kts 46°
2026-05-04 19:14 51.81489 7.64412 3044 ft 172 kts 39°
2026-05-04 19:15 51.82438 7.65544 3039 ft 164 kts 35°
2026-05-04 19:15 51.83326 7.66583 3025 ft 156 kts 35°
2026-05-04 19:15 51.84205 7.67613 3022 ft 152 kts 35°
2026-05-04 19:15 51.85042 7.68593 3021 ft 149 kts 35°
2026-05-04 19:16 51.85887 7.69580 3025 ft 147 kts 35°
2026-05-04 19:16 51.86718 7.70552 3024 ft 147 kts 35°
2026-05-04 19:16 51.87570 7.71409 3006 ft 147 kts 27°
2026-05-04 19:16 51.88480 7.72173 2844 ft 150 kts 28°
2026-05-04 19:17 51.89403 7.73164 2317 ft 166 kts 34°
2026-05-04 19:17 51.90274 7.73998 2085 ft 134 kts 27°
2026-05-04 19:17 51.91087 7.74683 1699 ft 127 kts 27°
2026-05-04 19:17 51.91836 7.75316 1446 ft 116 kts 26°
2026-05-04 19:18 51.92481 7.76027 1207 ft 109 kts 51°
2026-05-04 19:18 51.92702 7.77149 978 ft 104 kts 87°
2026-05-04 19:18 51.92715 7.78271 809 ft 96 kts 89°
2026-05-04 19:18 51.92732 7.79326 705 ft 97 kts 88°
2026-05-04 19:19 51.92905 7.80293 585 ft 85 kts 40°
2026-05-04 19:19 51.93351 7.80431 516 ft 63 kts 355°
2026-05-04 19:19 51.93844 7.80359 617 ft 82 kts 354°
2026-05-04 19:19 51.94277 7.80136 528 ft 60 kts 299°
2026-05-04 19:20 51.94371 7.79383 429 ft 67 kts 271°
2026-05-04 19:20 51.94396 7.78627 327 ft 65 kts 274°
2026-05-04 19:20 51.94428 7.77941 194 ft 59 kts 275°
2026-05-04 19:20 51.94446 7.77483 183 ft 20 kts 274°
2026-05-04 19:21 51.94457 7.77248 183 ft 17 kts 275°
2026-05-04 19:21 51.94422 7.77159 181 ft 11 kts 176°
2026-05-04 19:21 51.94371 7.77172 181 ft 4 kts 109°
2026-05-04 19:21 51.94372 7.77206 181 ft 0 kts 85°